DateTimeUTC,F1_A11,F1_S11,BsB_S11,BsG_S11,BsR_S11,BbsB_S11,BbsG_S11,BbsR_S11,BaB_A11,BaG_A11,BaR_A11,Tu_S11,T_S11,Uu_S11,U_S11,P_S11,T1_A11
2021-04-26T22:00:00Z,00000200,21000000,,,,,,,0000.24,0000.13,0000.42,18.6,25.9,00.4,00.3,0684.3,31.2
2021-04-26T22:01:00Z,00000200,21000000,,,,,,,0000.19,0000.32,0000.15,18.6,25.9,00.5,00.4,0684.3,31.2
2021-04-26T22:02:00Z,00000200,21000000,,,,,,,-000.29,-000.11,-000.29,18.6,25.9,00.6,00.4,0684.3,31.2
2021-04-26T22:03:00Z,00000200,61000000,,,,,,,0000.22,0000.06,-000.15,18.6,25.9,00.6,00.4,0684.3,31.2
2021-04-26T22:04:00Z,00000200,41000000,0001.80,0001.38,0000.78,0000.60,0000.48,0000.23,0000.81,0000.46,0001.07,18.7,25.7,00.7,00.4,0685.1,31.2
2021-04-26T22:05:00Z,00000200,01000000,0002.49,0001.54,0000.46,0000.17,0000.21,0000.02,0000.48,0000.85,0000.05,18.7,25.7,00.6,00.4,0685.2,31.2
2021-04-26T22:06:00Z,00000200,01000000,0002.13,0001.25,0000.95,0000.14,0000.17,0000.61,0000.80,0000.16,0000.54,18.7,25.6,00.8,00.5,0685.2,31.2
2021-04-26T22:07:00Z,00000200,01000000,0002.61,0001.14,0000.68,-000.26,0000.22,-000.06,0000.57,0000.77,0000.38,18.7,25.6,00.7,00.5,0685.2,31.2
2021-04-26T22:08:00Z,00000200,01000000,0002.53,0001.32,0000.61,0000.27,0000.25,0000.08,0000.85,0000.56,0000.72,18.7,25.6,00.7,00.5,0685.3,31.2
2021-04-26T22:09:00Z,00000200,01000000,0002.51,0001.36,0000.93,0000.60,0000.14,0000.04,0000.55,0000.58,0000.23,18.7,25.6,00.8,00.5,0685.3,31.2
2021-04-26T22:10:00Z,00000200,01000000,0002.13,0001.35,0000.66,0000.81,0000.11,0000.20,0000.58,0000.62,0000.48,18.7,25.6,00.7,00.5,0685.3,31.2
2021-04-26T22:11:00Z,00000200,01000000,0002.18,0001.55,0000.76,0000.50,0000.33,0000.17,0000.85,0001.00,0000.43,18.7,25.6,00.8,00.5,0685.3,31.2
2021-04-26T22:12:00Z,00000200,01000000,0002.69,0001.40,0000.76,0000.67,0000.30,0000.09,0000.97,0000.53,0000.44,18.7,25.6,00.9,00.6,0685.2,31.2
2021-04-26T22:13:00Z,00000200,01000000,0003.07,0001.39,0000.88,0000.62,0000.24,0000.18,0000.85,0000.56,0000.48,18.7,25.6,00.9,00.6,0685.2,31.2
2021-04-26T22:14:00Z,00000200,01000000,0002.77,0001.22,0000.81,0000.48,0000.25,0000.21,0000.83,0000.75,0001.02,18.7,25.6,00.9,00.6,0685.2,31.2
2021-04-26T22:15:00Z,00000200,01000000,0002.14,0001.55,0000.86,0000.25,0000.51,0000.45,0000.88,0000.61,0000.34,18.7,25.6,01.2,00.8,0685.2,31.2
2021-04-26T22:16:00Z,00000200,01000000,0002.36,0001.30,0000.77,0000.42,0000.04,0000.04,0000.52,0000.91,0000.63,18.7,25.5,01.2,00.8,0685.2,31.2
2021-04-26T22:17:00Z,00000200,01000000,0002.28,0001.29,0000.61,0000.46,-000.02,0000.33,0000.87,0000.88,0000.47,18.7,25.5,01.3,00.9,0685.2,31.2
2021-04-26T22:18:00Z,00000200,01000000,0002.70,0001.64,0000.81,0000.46,0000.18,0000.29,0000.57,0000.92,0000.38,18.7,25.5,01.5,01.0,0685.2,31.2
2021-04-26T22:19:00Z,00000200,01000000,0002.55,0001.48,0001.20,0000.09,0000.21,0000.60,0000.46,0000.20,0000.54,18.7,25.5,01.3,00.9,0685.2,31.2
2021-04-26T22:20:00Z,00000200,01000000,0002.20,0001.45,0001.11,0000.52,0000.21,0000.05,0000.36,0000.33,0000.12,18.7,25.5,01.3,00.9,0685.2,31.2
2021-04-26T22:21:00Z,00000200,01000000,0002.73,0001.11,0000.55,0000.60,0000.17,0000.36,0000.50,0000.22,0000.38,18.6,25.5,01.2,00.8,0685.2,31.2
2021-04-26T22:22:00Z,00000200,01000000,0001.75,0001.45,0000.77,-000.13,0000.31,0000.16,0000.18,0000.56,0000.37,18.6,25.5,01.2,00.8,0685.2,31.2
2021-04-26T22:23:00Z,00000200,01000000,0002.03,0001.69,0000.73,0000.44,-000.08,0000.13,0000.84,0000.32,0000.27,18.6,25.5,01.1,00.7,0685.2,31.2
2021-04-26T22:24:00Z,00000200,01000000,0001.88,0001.36,0001.02,0000.22,0000.03,0000.15,0000.42,0000.74,0000.17,18.6,25.5,01.1,00.7,0685.2,31.2
2021-04-26T22:25:00Z,00000200,01000000,0002.19,0001.56,0000.77,0000.39,0000.13,0000.30,0000.62,0000.30,0000.31,18.6,25.5,01.1,00.7,0685.2,31.2
2021-04-26T22:26:00Z,00000200,01000000,0002.45,0001.31,0000.87,0000.16,0000.36,0000.27,0000.10,-000.12,0000.11,18.6,25.4,00.8,00.6,0685.2,31.2
2021-04-26T22:27:00Z,00000200,01000000,0002.79,0001.46,0000.73,0000.55,0000.26,-000.02,0000.54,0000.54,0000.47,18.6,25.4,00.8,00.5,0685.2,31.2
2021-04-26T22:28:00Z,00000200,01000000,0002.40,0001.20,0000.78,0000.47,0000.15,0000.43,0001.05,0000.62,0000.81,18.6,25.4,00.8,00.5,0685.2,31.2
2021-04-26T22:29:00Z,00000200,01000000,0002.29,0001.71,0001.21,0000.13,0000.18,0000.31,0000.90,0000.93,0000.50,18.6,25.4,01.0,00.7,0685.2,31.2
2021-04-26T22:30:00Z,00000200,01000000,0002.45,0001.29,0001.18,0000.28,0000.30,0000.41,0000.85,0001.05,0000.42,18.6,25.4,01.2,00.8,0685.1,31.2
2021-04-26T22:31:00Z,00000200,01000000,0003.00,0001.60,0000.86,0000.82,-000.01,0000.30,0000.13,-000.23,0000.02,18.6,25.4,01.1,00.8,0685.2,31.2
2021-04-26T22:32:00Z,00000200,01000000,0001.58,0001.46,0001.04,0000.26,0000.21,0000.50,0000.09,0000.41,0000.29,18.6,25.4,00.9,00.6,0685.2,31.2
2021-04-26T22:33:00Z,00000200,01000000,0001.59,0001.36,0000.75,0000.64,0000.13,0000.20,0000.42,0000.44,-000.28,18.6,25.4,00.8,00.6,0685.2,31.2
2021-04-26T22:34:00Z,00000200,01000000,0002.23,0001.55,0000.84,0001.19,0000.26,-000.03,0000.77,0000.44,0000.78,18.6,25.4,00.8,00.5,0685.1,31.2
2021-04-26T22:35:00Z,00000200,01000000,0002.73,0001.48,0000.94,0000.78,0000.19,0000.38,0000.71,0000.62,0000.68,18.6,25.4,00.8,00.6,0685.1,31.2
2021-04-26T22:36:00Z,00000200,01000000,0002.17,0001.23,0000.82,0000.58,0000.21,0000.47,0000.42,0000.52,0000.40,18.6,25.4,00.9,00.6,0685.1,31.2
2021-04-26T22:37:00Z,00000200,01000000,0001.87,0001.33,0001.03,-000.09,0000.43,0000.17,0000.68,0000.51,0000.15,18.5,25.4,00.9,00.6,0685.0,31.2
2021-04-26T22:38:00Z,00000200,01000000,0002.55,0001.53,0000.81,0000.40,0000.23,0000.60,0000.95,0000.76,0000.82,18.5,25.4,00.9,00.6,0685.1,31.2
2021-04-26T22:39:00Z,00000200,01000000,0002.60,0001.58,0000.74,0000.57,0000.37,0000.17,0000.19,0000.21,-000.11,18.5,25.3,01.0,00.6,0685.1,31.2
2021-04-26T22:40:00Z,00000200,01000000,0002.41,0001.73,0000.77,0000.48,0000.39,0000.26,0001.08,0000.64,0001.03,18.5,25.3,00.9,00.6,0685.1,31.2
2021-04-26T22:41:00Z,00000200,01000000,0002.54,0001.33,0000.73,-000.05,0000.32,0000.10,0000.82,0000.92,0000.25,18.5,25.3,01.0,00.7,0685.2,31.2
2021-04-26T22:42:00Z,00000200,01000000,0002.28,0001.67,0000.72,0000.45,0000.31,0000.30,0000.16,0000.48,0000.34,18.5,25.3,01.0,00.7,0685.2,31.2
2021-04-26T22:43:00Z,00000200,01000000,0001.64,0001.01,0000.84,0000.49,-000.05,0000.08,0000.80,0000.71,0000.55,18.5,25.3,01.0,00.7,0685.2,31.2
2021-04-26T22:44:00Z,00000200,01000000,0002.44,0001.45,0000.90,-000.36,0000.13,0000.47,0000.24,-000.01,0000.34,18.5,25.3,01.0,00.7,0685.2,31.2
2021-04-26T22:45:00Z,00000200,01000000,0001.81,0001.66,0000.86,-000.04,0000.29,0000.15,0000.49,0000.43,0000.03,18.5,25.3,01.0,00.7,0685.1,31.2
2021-04-26T22:46:00Z,00000200,01000000,0002.12,0001.45,0001.05,0000.71,0000.12,0000.22,0001.00,0000.75,0000.55,18.5,25.3,00.9,00.6,0685.1,31.2
2021-04-26T22:47:00Z,00000200,01000000,0002.50,0001.55,0000.86,0000.10,0000.08,0000.29,0000.40,0000.94,0000.45,18.5,25.3,01.0,00.7,0685.1,31.2
2021-04-26T22:48:00Z,00000200,01000000,0002.14,0001.59,0000.72,0000.80,0000.25,0000.15,0000.72,0000.16,0000.34,18.5,25.3,01.0,00.7,0685.1,31.2
2021-04-26T22:49:00Z,00000200,01000000,0002.74,0001.44,0000.91,0000.22,0000.19,0000.24,0000.41,0000.56,0000.50,18.5,25.3,01.0,00.7,0685.1,31.2
2021-04-26T22:50:00Z,00000200,01000000,0002.93,0001.37,0000.75,0000.38,0000.27,-000.07,0001.04,0000.96,0000.58,18.5,25.3,01.1,00.7,0685.1,31.2
2021-04-26T22:51:00Z,00000200,01000000,0002.49,0001.51,0000.71,0000.30,0000.22,0000.01,0000.56,0000.53,0000.39,18.5,25.3,01.1,00.7,0685.1,31.2
2021-04-26T22:52:00Z,00000200,01000000,0002.81,0001.36,0000.79,0000.55,0000.29,0000.50,0000.22,0000.46,0000.32,18.5,25.3,01.0,00.6,0685.1,31.2
2021-04-26T22:53:00Z,00000200,01000000,0002.14,0001.36,0000.97,0000.36,0000.16,0000.31,0000.45,0000.35,0000.20,18.5,25.2,00.9,00.6,0685.1,31.2
2021-04-26T22:54:00Z,00000200,01000000,0002.11,0001.66,0000.84,0000.46,0000.27,-000.01,0000.50,0000.17,0000.36,18.5,25.2,00.9,00.6,0685.1,31.2
2021-04-26T22:55:00Z,00000200,01000000,0002.44,0001.54,0000.96,-000.13,0000.22,0000.42,0000.42,0000.40,0000.19,18.5,25.2,00.9,00.6,0685.2,31.1
2021-04-26T22:56:00Z,00000200,01000000,0002.29,0001.34,0000.61,0000.57,-000.03,0000.07,0000.28,0000.71,0000.43,18.5,25.3,00.8,00.6,0685.2,31.2
2021-04-26T22:57:00Z,00000200,41000000,,,,,,,0000.55,0000.04,0000.24,18.5,25.3,01.2,00.8,0685.2,31.2
2021-04-26T22:58:00Z,00000200,61000000,,,,,,,0000.08,-000.24,-000.33,18.3,25.4,00.9,00.6,0684.1,31.2
2021-04-26T22:59:00Z,00000200,21000000,,,,,,,-000.13,0000.37,0000.16,18.2,25.5,00.6,00.4,0684.1,31.2
